#timestamp,LO_Frequency,Hit,StdDev 
1561388415.5,286047007.4,N
1561388435.4,286047005.7,N
1561388455.2,286047000.7,N
1561388475.0,286047000.2,N
1561388475.9,286047000.2,N
1561388495.8,286047000.9,N
1561388515.6,286047000.9,N
1561388535.4,286047000.0,N
1561388555.3,286046998.1,N
1561388575.1,286047000.4,N
1561388576.0,286047000.4,N
1561388595.8,286047002.7,N
1561388615.7,286047000.6,N
1561388635.5,286047001.1,N
1561388655.3,286046998.6,N
1561388675.2,286046998.7,N
1561388695.9,286046996.7,N
1561388715.7,286046993.8,N
1561388735.6,286046993.3,N
1561388755.4,286046996.2,N
1561388775.2,286046996.2,N
1561388795.1,286046997.8,N
1561388796.0,286046997.8,N
1561388815.8,286046997.6,N
1561388835.6,286046998.4,N
1561388855.5,286046997.0,N
1561388875.3,286046996.0,N
1561388895.1,286046993.0,N
1561388915.9,286046989.7,N
1561388935.7,286046989.8,N
1561388955.5,286046988.8,N
1561388975.4,286046989.0,N
1561388995.2,286046986.9,Y
1561389015.0,286046988.6,P
1561389015.9,286046988.6,N
1561389035.8,286046989.0,N
1561389055.6,286046987.4,Y
1561389075.4,286046998.0,P
1561389095.3,286046993.8,N
1561389115.1,286046995.3,N
1561389135.8,286046995.0,N
1561389155.7,286046995.2,N
1561389175.5,286046992.7,Y
1561389195.4,286046997.4,P
1561389215.2,286046993.8,P
1561389235.0,286046992.6,P
1561389235.9,286046992.6,Y
1561389255.8,286046997.7,P
1561389275.6,286046997.6,N
1561389295.4,286046999.4,N
1561389315.3,286046998.3,N
1561389335.1,286046996.7,N
1561389336.0,286046996.7,N
1561389355.8,286046997.2,N
1561389375.7,286046999.0,N
1561389395.5,286047001.1,N
1561389415.3,286046995.4,N
1561389435.2,286046996.0,N
1561389455.9,286046991.9,Y
1561389475.7,286046993.5,P
1561389495.6,286046994.6,N
1561389515.4,286046995.8,N
1561389535.2,286046996.2,N
1561389555.1,286046995.4,Y
1561389556.0,286046995.4,P
1561389575.8,286047000.1,N
1561389595.6,286047004.0,N
1561389615.5,286047003.6,N
1561389635.3,286047007.4,N
1561389655.1,286047006.5,N
1561389675.9,286047007.5,N
1561389695.7,286047009.2,N
1561389715.5,286047010.7,N
1561389735.4,286047011.9,N
1561389755.2,286047012.5,N
1561389775.0,286047011.4,N
1561389775.9,286047011.4,N
1561389795.8,286047013.9,N
1561389815.6,286047012.3,N
1561389835.4,286047007.8,N
1561389855.3,286047008.8,N
1561389875.1,286047009.7,N
1561389895.8,286047011.8,N
1561389915.7,286047013.8,N
1561389935.5,286047015.1,N
1561389955.3,286047015.2,N
1561389975.2,286047012.6,N
1561389995.0,286047011.3,N
1561389995.9,286047011.3,N
1561390015.7,286047012.8,N
1561390035.6,286047013.7,N
1561390055.4,286047018.8,Y
1561390075.3,286047009.9,P
1561390095.1,286047012.5,P
1561390096.0,286047012.5,P
1561390115.8,286047010.4,Y
1561390135.7,286046993.9,P
1561390155.5,286046988.9,N
1561390175.3,286046989.7,N
1561390195.2,286046987.8,N
1561390215.9,286046987.1,N
1561390235.7,286046989.3,N
1561390255.6,286046990.2,N
1561390275.4,286046990.3,N
1561390295.2,286046993.0,N
1561390315.1,286046990.2,N
1561390316.0,286046986.3,N
1561390335.8,286046989.6,N
1561390355.6,286046987.0,N
1561390375.5,286046986.3,N
1561390395.3,286046982.3,Y
1561390415.1,286046992.9,P
1561390435.9,286046991.3,P
1561390455.7,286046991.3,P
1561390475.5,286046991.4,Y
1561390495.4,286046999.3,P
1561390515.2,286046999.5,N
1561390535.0,286046997.8,N
1561390535.9,286046997.8,N
1561390555.8,286046994.0,N
1561390575.6,286046995.7,N
1561390595.4,286046997.7,N
1561390615.3,286046999.1,N
1561390635.1,286046999.3,N
1561390655.8,286047000.8,N
1561390675.7,286047000.5,N
1561390695.5,286047002.0,N
1561390715.3,286047002.1,N
1561390735.2,286047001.8,N
1561390755.0,286047001.8,N
1561390755.9,286047001.8,N
1561390775.7,286047003.4,N
1561390795.6,286047003.6,N
1561390815.4,286047003.3,N
1561390835.2,286047002.0,N
1561390855.1,286047001.9,N
1561390856.0,286047001.9,N
1561390875.8,286046999.9,N
1561390895.7,286047001.9,N
1561390915.5,286046999.8,N
1561390935.3,286046999.2,N
1561390955.2,286046997.8,N
1561390975.9,286046997.5,N
1561390995.7,286046996.7,N
1561391015.6,286046998.2,N
1561391035.4,286046998.3,N
1561391055.2,286047001.5,N
1561391075.1,286047001.8,N
1561391076.0,286047001.8,N
1561391095.8,286047002.5,N
1561391115.6,286047004.3,N
1561391135.5,286047005.5,N
1561391155.3,286047003.8,N
1561391175.1,286047005.7,N
1561391195.9,286047007.4,Y
1561391215.7,286047005.7,P
1561391235.5,286047005.7,N
1561391255.4,286047003.3,N
1561391275.2,286047002.2,N
1561391295.0,286046999.8,N
1561391295.9,286046999.8,N
1561391315.8,286046999.7,N
1561391335.6,286047001.6,N
1561391355.4,286047002.0,N
1561391375.3,286047004.0,N
1561391395.1,286047002.0,N
1561391396.0,286047002.0,N
1561391415.8,286047003.4,N
1561391435.7,286047005.5,N
1561391455.5,286047004.3,N
1561391475.3,286046998.2,N
1561391495.2,286047001.1,N
1561391515.9,286047000.5,N
1561391535.7,286046999.8,N
1561391555.6,286047002.2,N
1561391575.4,286047000.8,N
1561391595.2,286046997.3,N
1561391615.1,286046993.7,N
1561391616.0,286046993.7,N
1561391635.8,286046993.3,N
1561391655.6,286046994.4,N
1561391675.5,286046996.0,N
1561391695.3,286046998.0,N
1561391715.1,286046997.6,N
1561391735.9,286046996.8,N
1561391755.7,286046997.1,N
1561391775.5,286046998.3,N
1561391795.4,286046996.5,N
1561391815.2,286046998.9,N
1561391835.0,286046999.0,N
1561391835.9,286046999.0,N
1561391855.8,286046998.7,N
1561391875.6,286046996.5,N
1561391895.4,286046999.1,N
1561391915.3,286047002.7,N
1561391935.1,286047005.9,N
1561391955.8,286046999.8,N
1561391975.7,286046997.0,N
1561391995.5,286046995.3,N
